Location: Newark
(7.1028°S, 35.3258°W)
Time: 11:29:51
(UTC+00:00)

Vanguard 3 - Pass Details

Date: 26 February 2020
Orbit: 508 x 3263 km, 33.4° (Epoch: 05 April)

Event Time Altitude Azimuth Distance (km) Brightness Sun altitude
Rises 23:52:06 0° 254° (WSW) 7,233 12.7 -46.5°
Reaches altitude 10° 23:58:53 10° 242° (WSW) 6,121 12.1 -48.1°
Maximum altitude 00:12:41 24° 195° (SSW) 4,385 10.9 -51.2°
Enters shadow 00:19:50 17° 159° (SSE) 4,317 10.8 -52.8°
